Temperature
16 17 17 18 15 12 14 15 15 16 18 20 20 20 19 18 19 20 20 21 21 21 19 18 17 17 17 17 16 16 16 16 16 16 17 16 16 16 15 15 16 16 16 16 16 16 16 16 16
16 16 17 17 13 13 14 15 16 17 19 19 19 19 18 18 19 20 20 20 20 20 19 18 17 17 17 17 16 16 16 16 16 17 17 16 16 16 16 16 16 16 16 17 17 16 16 16 16
16 16 16 13 12 13 15 16 16 17 19 19 19 18 18 18 18 19 20 19 19 20 19 18 17 17 17 16 16 16 16 16 16 17 17 16 16 16 16 16 16 16 16 16 16 16 16 16 16
15 16 15 12 13 14 15 16 16 16 19 19 18 17 17 17 18 19 19 19 19 19 19 18 17 17 17 17 16 16 16 16 17 17 17 16 16 16 16 16 16 16 16 16 16 16 16 16 16
15 15 13 12 13 14 14 15 16 16 18 18 18 17 17 18 18 18 19 18 19 19 18 18 17 17 17 17 17 17 17 17 17 17 17 16 16 16 16 16 16 16 16 16 16 16 16 16 16
14 13 12 12 13 14 15 15 16 16 17 18 17 16 16 17 18 18 18 18 18 18 18 17 17 17 17 17 17 17 17 17 18 17 17 17 17 17 17 17 17 17 17 16 16 16 16 16 16
13 11 11 12 13 14 15 16 15 14 16 17 17 16 15 16 17 17 17 17 17 17 17 17 17 16 17 17 17 17 17 17 18 18 18 18 17 17 17 17 17 17 17 17 16 16 16 16 16
12 11 11 12 13 14 14 15 15 15 16 17 17 16 16 16 16 17 16 16 16 16 16 17 17 16 16 17 17 17 17 17 17 18 18 18 18 18 17 17 17 17 17 17 16 16 16 16 16
12 11 11 12 13 14 14 14 15 16 16 16 16 16 17 16 16 16 16 15 15 15 16 16 16 16 16 16 16 16 16 17 17 17 18 18 18 18 18 17 17 17 17 16 16 16 16 16 16
11 11 12 13 14 13 13 13 13 15 15 15 15 16 16 16 16 16 16 15 15 15 15 16 16 16 16 16 16 16 16 16 17 17 17 17 17 17 17 17 17 17 17 16 16 16 16 16 16
10 11 12 13 13 13 13 13 13 13 13 14 14 15 16 16 16 16 16 16 16 16 16 16 16 16 16 16 17 17 17 17 17 17 17 17 17 17 17 17 17 17 16 16 16 16 15 15 15
10 11 12 13 13 13 13 13 13 13 14 14 15 15 15 16 17 17 17 17 17 17 17 16 16 16 16 17 17 17 17 17 17 16 16 16 17 17 17 17 16 16 16 16 15 15 15 15 15
10 11 12 12 13 13 13 12 12 13 15 15 15 15 16 16 17 17 17 17 17 17 17 17 17 17 17 17 17 17 17 16 16 16 16 16 16 16 16 16 16 16 15 15 15 15 14 14 14
10 11 12 12 12 12 12 12 12 14 15 15 15 15 16 17 17 17 17 17 17 17 17 17 17 16 16 16 16 16 16 16 16 16 16 16 16 16 16 16 15 15 15 15 14 14 14 14 13
11 10 11 11 11 11 12 11 12 14 14 14 15 15 16 17 17 17 17 17 17 17 17 17 16 16 16 16 16 16 16 16 16 16 15 15 15 15 15 15 15 15 14 14 14 14 13 13 13
10 10 10 10 11 11 11 11 12 14 13 14 14 15 16 17 17 17 17 17 17 16 16 16 16 16 16 16 16 15 15 15 15 15 15 15 15 15 15 15 15 14 14 14 13 13 13 13 13
9 9 9 10 11 11 11 11 12 13 13 13 14 15 15 16 17 17 17 17 17 17 16 16 16 16 16 16 15 15 15 15 15 15 15 15 15 14 14 14 14 14 14 13 13 13 13 13 13
8 8 9 10 10 10 10 11 12 13 13 13 14 14 15 16 17 17 17 17 17 17 17 16 16 16 16 15 15 15 15 15 15 15 15 15 15 14 14 14 14 14 13 13 13 13 13 13 13
8 9 9 10 11 11 11 11 12 12 12 13 13 14 16 16 17 17 17 17 17 17 17 17 16 16 16 16 15 15 15 15 15 15 15 14 14 14 14 14 14 14 13 13 13 13 13 13 13
9 9 10 11 11 11 11 11 12 12 12 13 14 15 16 16 16 17 17 17 17 17 17 17 16 16 16 16 15 15 15 15 15 15 15 14 14 14 14 14 14 14 13 13 13 13 13 12 12
9 8 9 10 11 11 11 11 11 12 12 13 14 15 15 16 16 16 17 17 17 17 17 16 16 16 16 16 15 15 15 15 15 15 15 14 14 14 14 14 14 13 13 13 13 13 12 12 12
9 9 10 10 10 9 10 9 10 11 11 11 13 14 15 15 15 16 16 16 16 16 16 16 16 15 15 15 15 15 15 14 14 14 14 14 14 14 14 14 13 13 13 13 13 12 12 12 11
9 9 9 10 9 9 9 9 9 10 10 11 12 13 15 15 15 15 15 15 15 15 15 15 15 14 14 14 14 14 14 14 13 13 13 13 13 13 13 13 13 13 12 12 12 12 12 12 11
8 8 7 7 8 8 8 8 8 8 10 11 11 13 14 15 14 14 14 14 14 14 14 13 13 13 13 13 13 13 12 12 12 12 12 12 12 12 12 12 12 12 12 12 11 11 11 11 11
9 8 7 7 7 7 7 8 9 9 9 10 11 12 13 13 13 13 13 13 13 13 12 12 12 12 12 12 11 11 11 11 11 11 11 11 11 11 11 11 11 11 11 11 11 10 10 10 10
8 8 7 7 6 6 7 7 8 9 9 10 11 11 12 12 12 12 12 12 12 12 11 11 11 11 11 11 11 10 10 10 10 10 10 10 10 10 10 10 10 10 10 10 10 9 9 9 9
7 7 7 6 6 6 6 6 7 8 8 9 9 9 10 11 11 11 11 11 11 11 11 11 10 10 10 10 10 10 9 9 9 9 9 9 9 9 9 9 9 9 9 9 9 9 8 8 8
7 6 6 6 6 7 7 7 7 9 9 9 7 8 9 10 10 11 11 11 11 10 10 10 10 10 9 9 9 9 8 8 8 8 8 8 8 8 8 8 8 8 8 8 8 8 8 7 7
7 7 7 6 6 6 6 7 8 8 8 7 7 8 8 9 10 10 10 10 10 10 10 9 9 9 9 8 8 8 7 7 7 7 7 7 7 7 7 7 7 7 7 7 7 7 7 7 7
7 7 6 6 5 5 5 7 9 7 6 6 7 8 9 10 10 10 10 10 10 10 9 9 8 8 8 7 7 6 6 6 6 6 6 6 6 6 6 6 6 6 6 6 6 6 6 6 6
Wind_Speed
8 6 3 4 5 4 3 5 4 5 3 2 1 4 7 6 6 4 2 8 10 11 16 20 18 17 15 15 15 15 15 14 13 11 10 10 11 13 14 14 13 13 13 13 14 14 15 15 15
5 3 5 5 5 2 5 5 5 5 4 1 2 4 4 3 1 5 6 7 12 14 15 17 18 17 16 16 16 16 15 14 12 10 10 11 12 14 14 13 13 13 12 13 13 13 13 13 12
3 4 4 5 5 6 5 3 4 6 6 2 1 3 4 3 4 6 6 10 11 12 14 17 18 18 17 17 17 16 15 14 12 10 10 11 13 14 14 13 13 12 12 12 12 12 11 11 10
3 4 5 4 6 6 4 2 5 7 3 1 3 4 3 3 3 6 11 13 12 9 14 18 19 18 18 18 17 16 16 14 12 11 11 12 14 14 13 13 12 11 10 10 10 10 9 9 9
3 3 4 2 5 4 3 4 4 4 3 1 3 4 3 6 5 11 14 14 12 8 13 17 19 18 18 18 17 17 16 14 13 12 11 12 13 13 12 11 10 9 9 8 8 8 8 8 8
3 3 4 5 5 3 2 3 3 4 3 2 3 3 3 2 8 11 12 11 9 8 12 16 18 18 18 18 17 17 15 14 13 12 12 11 12 11 11 10 9 8 7 6 6 6 6 6 7
4 4 6 6 4 2 1 3 4 5 4 2 1 4 2 3 7 9 10 9 7 8 9 11 15 17 17 18 17 16 15 14 13 12 11 11 10 10 10 9 8 7 6 5 4 4 4 5 6
3 4 6 6 6 3 1 3 3 4 4 4 2 5 5 6 9 10 10 9 8 6 6 8 12 14 15 16 16 16 15 14 12 12 11 10 10 9 9 8 7 6 5 4 3 3 3 4 5
3 4 8 9 8 4 2 4 7 4 3 4 5 2 2 12 12 12 10 8 8 7 5 6 8 10 12 13 14 15 14 13 12 11 11 10 8 7 7 7 6 6 5 4 2 2 2 3 4
7 8 10 5 4 4 3 4 6 8 7 5 7 7 4 11 13 13 12 12 11 10 7 5 6 8 10 10 10 11 11 11 10 10 11 9 8 6 5 5 5 5 4 3 2 1 1 2 2
9 10 7 3 2 4 3 2 3 5 5 5 8 6 5 10 13 13 13 12 11 9 8 7 6 8 8 7 8 8 9 10 10 10 10 9 7 6 4 4 4 4 4 4 3 2 2 1 1
8 9 7 4 3 3 1 2 3 1 5 7 9 6 6 12 14 14 14 12 10 9 9 7 7 7 8 8 8 8 8 8 9 10 11 9 7 6 5 5 6 6 5 5 5 4 5 4 4
7 8 8 5 4 2 1 2 4 8 8 8 8 3 7 10 10 9 9 9 8 9 9 8 7 7 7 7 7 8 8 9 11 11 12 12 8 6 7 7 7 8 7 7 7 6 6 6 6
7 7 7 5 5 2 1 3 3 10 5 11 10 7 6 7 8 7 7 8 8 8 8 7 8 8 8 6 6 7 10 10 10 11 13 14 12 9 7 7 7 9 10 10 9 8 7 6 6
6 8 7 6 7 4 3 6 9 14 8 10 11 9 6 5 6 8 8 8 8 7 7 7 8 7 7 7 8 8 10 10 10 11 14 14 14 12 10 7 6 10 12 11 9 8 7 5 5
6 8 7 7 9 6 7 11 12 11 8 11 11 9 7 5 5 6 6 6 6 6 6 7 7 8 8 7 7 8 10 10 10 12 12 14 15 15 11 7 7 12 11 9 6 5 5 6 6
5 8 8 7 11 8 9 8 9 7 8 12 11 9 7 6 4 3 4 5 5 6 6 6 6 7 7 7 7 7 8 9 10 11 12 13 15 16 13 9 10 11 9 7 6 6 5 6 7
10 8 8 9 11 11 12 9 5 8 10 14 11 9 7 7 5 2 1 1 3 3 4 4 4 4 4 4 3 3 4 5 8 9 10 12 13 14 13 10 10 10 6 6 7 8 7 6 6
8 8 6 4 7 10 12 8 6 8 10 12 11 9 8 7 2 1 2 3 5 4 4 3 3 2 3 2 3 3 3 3 3 5 8 10 11 11 11 8 7 7 8 9 8 7 7 7 3
9 9 7 3 6 8 7 8 6 8 11 11 12 11 9 6 3 2 2 4 5 5 5 5 4 3 2 2 2 2 1 1 2 2 3 5 6 7 8 7 5 5 7 8 8 7 5 4 4
5 10 8 6 4 3 5 4 8 8 9 9 10 9 8 9 9 6 4 5 6 6 5 6 6 5 4 2 2 2 2 1 1 1 2 3 4 5 6 6 6 5 6 7 7 7 7 6 5
4 6 8 8 7 1 3 4 7 9 10 13 13 10 10 9 9 7 7 6 6 5 6 7 7 7 6 5 3 2 1 1 1 2 3 4 5 4 4 4 5 4 5 6 6 6 6 6 5
5 6 6 5 6 2 1 3 7 5 11 16 15 13 11 10 10 10 8 7 6 5 6 7 8 8 7 7 6 4 2 1 2 2 4 4 4 5 6 5 3 3 4 5 5 5 5 5 6
7 8 8 6 4 3 6 6 8 7 10 9 10 11 11 10 10 8 7 7 6 6 6 6 8 7 7 7 7 5 4 3 3 3 4 4 3 3 5 6 4 3 3 4 4 4 5 5 5
5 7 4 2 1 6 4 6 9 8 8 8 9 8 9 10 11 11 10 8 7 7 6 6 7 7 6 6 6 5 3 2 2 2 3 3 3 3 5 4 4 3 3 3 2 2 3 3 3
6 7 7 6 6 4 3 8 8 7 6 7 8 7 8 10 10 11 10 9 8 8 7 6 7 6 5 5 4 4 4 2 2 2 2 2 2 3 4 4 4 4 4 4 2 1 1 1 1
7 4 5 5 3 2 6 7 9 6 7 6 6 6 9 10 10 10 9 8 8 7 6 6 6 5 4 4 3 4 4 3 3 3 3 2 3 3 4 4 5 5 6 5 4 3 4 3 3
6 9 6 5 5 4 6 6 5 7 8 6 6 7 9 9 9 9 8 8 6 6 5 5 5 4 3 3 3 3 4 4 4 3 4 4 4 4 5 5 6 6 7 6 6 5 5 6 6
5 5 5 5 4 5 4 7 6 7 7 9 9 7 9 10 10 9 8 7 7 6 5 5 4 4 3 3 3 4 4 4 4 4 5 5 5 6 6 6 6 7 8 7 7 7 7 8 7
3 6 7 6 5 4 4 7 6 5 8 8 7 7 8 8 8 8 8 7 7 6 5 4 3 3 3 3 3 4 4 4 5 5 5 6 6 6 6 6 7 8 8 8 8 8 8 8 8
Wind_Direction
343 358 56 56 60 61 230 246 248 291 259 253 205 146 154 155 168 187 115 144 137 146 160 157 157 152 148 144 140 137 134 129 124 119 116 118 119 119 115 111 105 99 94 92 93 94 96 95 93
350 20 54 65 104 148 253 248 253 257 285 10 68 96 102 95 73 115 135 155 144 148 155 155 155 150 146 143 141 139 136 131 127 124 123 126 127 124 119 114 108 102 98 97 97 97 97 95 91
6 47 85 89 136 180 225 228 263 284 278 223 80 62 103 116 154 153 153 149 140 144 150 154 153 149 146 144 144 142 138 133 130 128 126 129 131 127 122 115 109 105 102 102 101 100 96 91 86
57 55 64 107 185 209 220 288 301 313 327 118 122 83 69 12 187 152 140 143 138 137 148 154 150 148 146 146 146 144 139 136 133 129 127 128 127 123 118 116 112 109 107 106 104 101 95 88 81
59 89 101 153 211 233 243 285 304 322 312 63 115 110 34 358 91 128 138 144 143 138 147 152 150 149 149 149 148 146 144 142 139 135 131 128 125 123 121 121 118 115 112 109 106 103 96 86 79
68 86 138 191 219 254 277 311 347 345 319 82 114 92 37 68 122 134 138 138 138 138 145 152 153 151 152 151 150 149 149 149 147 144 138 133 130 132 131 130 128 125 121 116 109 103 95 84 77
138 144 177 176 185 230 12 357 43 342 341 333 143 102 98 118 129 127 124 122 121 130 136 145 151 152 153 153 153 154 155 154 154 152 146 141 140 143 144 143 142 138 132 124 115 104 95 83 76
160 150 164 174 173 193 41 36 26 352 311 332 21 147 170 161 134 119 118 121 123 119 124 132 140 146 150 154 157 158 159 159 159 157 153 149 150 154 155 155 155 149 144 138 127 109 93 82 75
135 180 193 189 180 170 81 42 352 336 344 5 6 331 207 137 133 130 132 137 145 146 135 134 135 141 148 154 161 163 164 165 162 160 157 154 155 159 164 168 171 166 164 165 162 143 106 91 78
169 206 208 186 159 124 80 59 8 11 4 15 8 5 104 140 148 152 157 162 168 171 166 151 144 145 149 154 158 162 164 166 165 165 164 164 165 167 170 182 190 190 193 201 212 224 86 75 64
176 209 205 190 127 96 66 36 32 28 359 20 339 313 173 164 164 168 171 174 178 176 175 168 157 155 154 149 156 162 164 168 172 176 177 174 174 178 182 195 214 220 222 225 243 265 275 300 331
176 205 193 186 134 98 88 352 353 324 257 305 307 268 213 186 182 181 180 183 178 177 184 175 166 163 167 162 167 172 172 177 182 187 187 181 182 191 201 210 221 226 227 228 238 249 260 270 272
181 184 190 162 128 114 46 316 314 282 281 324 330 280 216 205 199 192 185 182 177 185 188 182 173 173 174 171 176 184 189 192 195 195 197 196 194 202 210 220 225 230 231 230 234 242 251 261 270
175 160 165 154 145 161 223 292 304 274 323 336 326 292 240 214 201 191 185 186 187 191 191 185 184 183 179 178 183 191 198 201 202 205 207 207 208 210 213 222 228 233 233 234 234 237 243 254 261
135 136 149 169 163 163 137 269 249 263 307 312 307 295 269 231 207 206 201 196 195 193 187 186 191 185 184 188 193 197 201 204 207 214 217 215 215 218 218 223 229 235 237 237 239 243 242 247 247
112 139 167 182 167 157 168 240 242 254 280 287 291 288 277 258 229 225 215 205 196 187 184 189 193 185 192 193 196 199 201 205 215 221 222 222 222 222 220 224 233 236 234 229 229 232 237 243 241
146 168 170 172 173 160 185 234 239 215 243 265 274 274 270 270 262 249 227 208 192 185 180 182 184 181 192 195 197 202 203 208 218 222 225 228 227 225 221 228 233 230 225 224 229 230 225 242 244
175 164 164 174 180 174 194 221 219 186 218 249 260 263 260 252 260 308 329 168 146 146 156 165 170 173 178 178 181 195 209 217 220 222 227 230 230 228 224 231 232 221 219 226 227 234 229 237 247
136 131 140 161 169 178 198 209 208 190 211 237 248 251 249 245 259 35 63 91 98 92 108 120 137 136 139 142 166 188 216 220 221 227 232 232 233 231 224 230 228 216 223 230 226 229 235 241 219
134 141 148 138 160 168 188 214 215 204 214 226 235 238 234 225 197 158 88 75 92 95 91 91 91 86 102 138 151 167 173 203 218 226 233 238 242 238 231 231 232 220 226 233 229 219 226 226 184
145 160 158 145 103 90 135 230 233 232 225 231 235 233 226 209 198 185 154 116 99 89 86 90 79 69 57 63 92 74 60 30 10 341 313 309 286 262 246 244 241 233 227 236 233 221 224 240 214
141 160 142 133 128 153 162 235 251 228 237 237 233 226 221 209 191 182 166 141 115 97 86 83 76 64 49 51 74 98 124 247 321 335 331 335 343 331 303 277 257 245 237 240 242 228 224 231 236
140 125 114 117 121 108 153 213 270 223 234 239 232 221 215 204 189 180 167 145 119 103 91 84 76 61 48 51 61 72 66 10 337 343 343 344 346 352 347 330 303 275 259 255 251 241 230 227 235
120 86 65 57 86 224 209 196 265 225 221 237 232 220 208 191 179 163 144 129 114 101 94 89 82 65 50 54 54 60 58 26 8 359 351 344 339 343 355 352 343 321 296 280 267 254 243 238 238
115 107 89 77 192 242 208 210 248 241 228 229 243 236 204 180 167 160 154 147 134 120 107 97 91 74 55 56 52 45 42 33 10 340 336 339 343 343 343 347 341 334 325 315 297 268 256 248 245
156 137 154 171 199 246 226 233 252 255 263 256 258 243 187 175 170 166 161 150 140 130 118 107 97 85 63 58 51 38 30 24 3 349 342 341 335 325 334 345 352 357 357 357 3 13 359 359 336
140 157 145 122 131 210 251 278 300 275 271 263 253 208 185 175 170 162 152 146 141 132 124 118 109 94 70 57 54 43 29 24 12 4 4 355 348 345 359 7 14 17 19 19 29 42 33 44 40
144 142 117 129 160 233 270 267 253 280 273 270 241 212 188 170 164 157 151 145 137 130 121 110 106 100 79 59 47 47 24 18 17 27 27 21 14 16 22 29 36 36 33 32 44 48 45 58 48
120 137 137 148 176 184 251 269 230 244 273 271 251 216 184 174 169 162 152 143 135 129 125 116 103 93 78 62 52 42 26 25 35 41 35 34 35 34 41 46 50 48 43 41 52 53 53 62 56
163 168 150 168 216 198 209 268 268 260 275 262 237 194 178 173 165 156 150 146 146 143 137 124 110 97 85 75 64 51 39 40 46 46 43 46 49 44 49 54 57 55 52 51 58 61 58 62 59
Height
1520 1521 1523 1525 1529 1540 1541 1533 1528 1525 1522 1520 1519 1519 1521 1524 1528 1532 1527 1528 1532 1535 1538 1542 1546 1549 1551 1553 1555 1556 1557 1558 1559 1559 1559 1560 1561 1562 1563 1563 1564 1563 1563 1563 1563 1563 1564 1565 1566
1520 1521 1524 1525 1535 1546 1540 1530 1527 1523 1521 1520 1519 1519 1520 1521 1523 1524 1524 1528 1533 1536 1539 1542 1546 1549 1551 1553 1555 1557 1558 1559 1559 1560 1560 1561 1562 1563 1564 1565 1565 1565 1565 1565 1565 1566 1566 1567 1568
1519 1520 1523 1527 1536 1540 1533 1525 1524 1521 1520 1520 1519 1519 1520 1522 1523 1524 1525 1529 1533 1537 1540 1543 1547 1549 1552 1554 1556 1557 1558 1559 1560 1561 1562 1563 1564 1565 1566 1566 1567 1567 1567 1567 1567 1568 1568 1569 1569
1519 1521 1523 1530 1533 1530 1526 1524 1522 1520 1519 1519 1519 1520 1521 1523 1524 1525 1527 1530 1533 1537 1541 1544 1547 1550 1552 1554 1556 1558 1559 1560 1561 1562 1563 1564 1565 1566 1567 1568 1568 1569 1569 1569 1569 1570 1570 1571 1571
1518 1520 1526 1532 1529 1525 1523 1522 1521 1520 1519 1519 1520 1520 1521 1523 1524 1527 1529 1531 1534 1538 1541 1545 1548 1550 1553 1555 1557 1558 1560 1561 1562 1563 1564 1564 1565 1566 1567 1568 1569 1570 1570 1570 1571 1571 1572 1572 1572
1518 1519 1529 1532 1528 1523 1522 1522 1521 1520 1519 1520 1520 1521 1522 1524 1525 1528 1531 1533 1536 1539 1542 1545 1548 1551 1553 1555 1557 1559 1560 1562 1563 1564 1565 1565 1566 1567 1568 1569 1570 1571 1571 1572 1572 1572 1573 1573 1573
1517 1521 1525 1526 1526 1523 1522 1521 1522 1521 1520 1521 1521 1521 1522 1524 1527 1529 1532 1534 1537 1540 1543 1546 1548 1551 1553 1555 1557 1559 1561 1562 1563 1564 1565 1566 1567 1568 1568 1569 1570 1571 1572 1573 1573 1574 1574 1574 1574
1515 1520 1523 1524 1523 1522 1522 1521 1523 1522 1522 1522 1522 1522 1522 1525 1527 1530 1532 1535 1538 1540 1543 1546 1548 1551 1553 1555 1557 1559 1561 1562 1564 1565 1566 1567 1567 1568 1569 1570 1571 1572 1573 1573 1574 1574 1574 1574 1575
1513 1520 1520 1520 1519 1520 1521 1521 1522 1522 1522 1522 1522 1523 1523 1524 1527 1530 1533 1535 1538 1541 1543 1545 1548 1550 1553 1555 1557 1559 1560 1562 1563 1564 1565 1566 1567 1568 1569 1570 1571 1572 1573 1574 1574 1575 1575 1575 1575
1511 1515 1514 1513 1514 1518 1520 1522 1523 1523 1522 1523 1523 1523 1523 1525 1528 1530 1532 1535 1537 1540 1542 1545 1547 1550 1552 1554 1556 1558 1560 1561 1563 1564 1565 1566 1567 1568 1569 1570 1571 1571 1572 1573 1574 1574 1575 1575 1575
1506 1510 1511 1513 1514 1517 1520 1522 1524 1524 1525 1526 1527 1526 1525 1526 1528 1530 1532 1535 1538 1540 1542 1544 1546 1549 1551 1554 1556 1557 1559 1561 1562 1563 1564 1565 1566 1567 1568 1569 1570 1571 1572 1572 1573 1574 1574 1574 1574
1504 1506 1510 1512 1514 1517 1520 1522 1523 1524 1526 1526 1526 1526 1526 1526 1527 1529 1532 1535 1537 1539 1541 1543 1545 1548 1550 1553 1555 1557 1558 1560 1561 1563 1564 1565 1566 1567 1568 1568 1569 1570 1571 1571 1572 1572 1573 1573 1573
1501 1503 1508 1511 1514 1517 1520 1522 1523 1521 1523 1524 1524 1525 1526 1527 1528 1530 1532 1535 1537 1539 1540 1543 1545 1547 1550 1552 1554 1555 1557 1559 1560 1561 1563 1564 1565 1566 1567 1567 1568 1569 1569 1570 1570 1571 1571 1571 1571
1500 1502 1507 1511 1514 1517 1521 1522 1523 1518 1522 1523 1524 1524 1525 1527 1528 1530 1531 1533 1536 1538 1540 1542 1545 1547 1549 1551 1553 1555 1556 1558 1559 1560 1561 1562 1563 1564 1565 1566 1567 1567 1568 1568 1569 1569 1569 1569 1569
1499 1504 1508 1511 1514 1518 1522 1523 1520 1517 1522 1523 1524 1524 1525 1526 1527 1529 1531 1533 1535 1537 1539 1541 1544 1546 1548 1550 1552 1553 1555 1556 1557 1559 1560 1561 1562 1563 1563 1564 1565 1566 1566 1566 1566 1566 1566 1566 1566
1500 1505 1510 1511 1513 1517 1524 1522 1516 1518 1522 1522 1523 1523 1524 1525 1526 1528 1530 1532 1534 1536 1538 1540 1542 1544 1547 1549 1550 1552 1553 1554 1556 1557 1558 1559 1560 1561 1561 1561 1562 1563 1563 1563 1563 1563 1563 1563 1562
1502 1507 1509 1510 1511 1515 1520 1520 1515 1516 1520 1521 1522 1522 1523 1524 1525 1527 1528 1531 1533 1535 1537 1539 1541 1543 1545 1547 1548 1550 1551 1552 1553 1555 1556 1557 1557 1558 1558 1558 1559 1560 1559 1559 1559 1559 1559 1559 1558
1500 1504 1506 1508 1509 1512 1516 1516 1513 1514 1519 1520 1520 1521 1522 1522 1524 1525 1527 1529 1531 1533 1535 1537 1539 1540 1542 1544 1546 1547 1548 1549 1550 1551 1552 1553 1554 1554 1554 1555 1555 1555 1555 1555 1555 1555 1554 1554 1553
1497 1502 1506 1506 1506 1510 1513 1514 1514 1515 1518 1519 1518 1518 1519 1520 1522 1523 1525 1527 1529 1531 1533 1535 1536 1538 1540 1541 1542 1543 1544 1546 1547 1548 1548 1549 1549 1550 1550 1550 1550 1550 1550 1550 1550 1549 1549 1548 1548
1496 1502 1505 1505 1505 1508 1512 1514 1512 1513 1514 1515 1514 1515 1516 1517 1519 1521 1523 1524 1526 1528 1530 1532 1534 1535 1537 1538 1539 1540 1541 1542 1543 1544 1544 1544 1545 1545 1545 1545 1545 1545 1545 1545 1545 1544 1543 1543 1543
1497 1502 1504 1506 1507 1508 1512 1515 1512 1509 1510 1510 1510 1511 1512 1514 1516 1518 1520 1521 1523 1525 1527 1529 1530 1532 1534 1535 1536 1536 1537 1538 1539 1539 1540 1540 1540 1540 1539 1539 1539 1539 1539 1539 1539 1539 1538 1537 1537
1499 1499 1502 1505 1511 1516 1514 1522 1512 1507 1507 1505 1504 1505 1507 1510 1512 1514 1516 1518 1520 1522 1524 1526 1527 1529 1530 1531 1532 1532 1533 1533 1534 1534 1534 1534 1534 1534 1534 1533 1533 1533 1533 1532 1533 1533 1532 1532 1531
1498 1498 1503 1506 1512 1517 1517 1521 1513 1505 1504 1498 1497 1499 1502 1505 1508 1511 1513 1515 1517 1519 1521 1523 1524 1525 1526 1527 1527 1528 1528 1528 1528 1528 1529 1529 1529 1528 1528 1527 1527 1527 1526 1526 1526 1526 1526 1526 1525
1497 1502 1508 1513 1516 1522 1519 1522 1513 1504 1496 1492 1491 1492 1495 1499 1503 1507 1510 1512 1514 1516 1518 1520 1521 1522 1523 1523 1523 1524 1524 1524 1524 1524 1524 1523 1523 1522 1522 1521 1521 1521 1520 1520 1520 1520 1520 1520 1519
1497 1506 1518 1522 1526 1525 1518 1516 1504 1493 1489 1488 1487 1487 1490 1493 1498 1502 1505 1509 1511 1514 1516 1517 1518 1519 1520 1520 1520 1520 1520 1520 1519 1519 1519 1519 1518 1518 1517 1516 1516 1515 1515 1515 1514 1514 1514 1514 1514
1498 1503 1515 1520 1525 1523 1517 1514 1498 1488 1485 1484 1484 1485 1486 1489 1494 1498 1502 1506 1509 1512 1514 1515 1516 1516 1517 1517 1516 1516 1516 1515 1515 1515 1514 1514 1514 1513 1512 1512 1511 1511 1510 1509 1509 1509 1509 1509 1508
1500 1505 1507 1518 1521 1521 1518 1508 1497 1484 1482 1481 1481 1481 1482 1486 1491 1496 1500 1504 1507 1510 1511 1513 1513 1513 1513 1513 1513 1512 1512 1511 1511 1510 1510 1510 1509 1509 1508 1507 1507 1506 1505 1505 1504 1504 1504 1504 1503
1495 1501 1512 1518 1521 1517 1510 1508 1500 1486 1482 1480 1480 1480 1481 1485 1489 1494 1498 1502 1505 1507 1509 1510 1510 1510 1510 1509 1508 1508 1507 1507 1507 1506 1506 1506 1505 1505 1504 1504 1503 1502 1502 1501 1501 1500 1500 1499 1499
1499 1501 1504 1512 1514 1516 1515 1504 1488 1485 1482 1480 1478 1479 1481 1484 1488 1493 1497 1500 1503 1505 1506 1506 1507 1506 1506 1505 1504 1503 1503 1503 1503 1503 1503 1502 1502 1502 1501 1501 1500 1499 1499 1498 1498 1497 1496 1496 1496
1494 1497 1503 1510 1514 1516 1515 1503 1481 1482 1479 1477 1477 1478 1481 1485 1489 1493 1496 1498 1500 1502 1503 1503 1503 1502 1501 1501 1500 1499 1499 1499 1499 1499 1499 1499 1499 1499 1498 1498 1497 1497 1496 1496 1495 1495 1494 1493 1493